Location: Dos Palmas
(32.4468°N, 116.8732°W)
Time: 23:12:46
(UTC+00:00)

Cosmos 2322 Rocket - Pass Details

Date: 20 June 2021
Orbit: 833 x 850 km, 71.0° (Epoch: 01 August)

Event Time Altitude Azimuth Distance (km) Brightness Sun altitude
Rises 03:40:00 0° 196° (SSW) 3,391 5.1 -8.4°
Reaches altitude 10° 03:42:26 10° 195° (SSW) 2,461 4.4 -8.9°
Maximum altitude 03:48:05 82° 109° (ESE) 861 2.2 -9.8°
Drops below altitude 10° 03:53:47 10° 22° (NNE) 2,479 4.8 -10.8°
Sets 03:56:15 0° 22° (NNE) 3,418 5.6 -11.2°
